This is the latest recevied weather packets stored in our database for station/object KB0BDN-13. If no packets are shown the sender has not sent any weather packets the latest 10 day(s).
| Time | Temp. | Humidity | Pressure | Rain* | Wind** | Luminosity | Snow |
|---|---|---|---|---|---|---|---|
| 1788356650 | 15° C | 99% | 1006.6 hPa | 0 mm | - | - | - |
| 1788355750 | 14.44° C | 99% | 1006.4 hPa | 0 mm | - | - | - |
| 1788354996 | 14.44° C | 99% | 1006.4 hPa | 0 mm | - | - | - |
| 1788354096 | 13.89° C | 99% | 1006.5 hPa | 0 mm | - | - | - |
| 1788353196 | 13.33° C | 99% | 1006.4 hPa | 0 mm | - | - | - |
| 1788353049 | 12.78° C | 99% | 1006.3 hPa | 0 mm | - | - | - |
| 1788352296 | 12.22° C | 98% | 1006.3 hPa | 0 mm | - | - | - |
| 1788352153 | 12.22° C | - | - | - | - | - | - |
| 1788352150 | 12.22° C | 98% | 1006 hPa | 0 mm | - | - | - |
| 1788351396 | 12.22° C | 98% | 1006 hPa | 0 mm | - | - | - |
| 1788351250 | 12.22° C | 98% | 1005.9 hPa | 0 mm | - | - | - |
| 1788350496 | 12.22° C | 98% | 1005.9 hPa | 0 mm | - | - | - |
| 1788350350 | 12.22° C | 98% | 1005.8 hPa | 0 mm | - | - | - |
| 1788349596 | 12.22° C | 98% | 1005.8 hPa | 0 mm | - | - | - |
| 1788349453 | 12.22° C | 98% | 1005.8 hPa | 0 mm | - | - | - |
| 1788348695 | 12.22° C | 98% | 1005.8 hPa | 0 mm | - | - | - |
| 1788348553 | 12.22° C | 98% | 1005.8 hPa | 0 mm | - | - | - |
| 1788347795 | 12.22° C | 98% | 1005.8 hPa | 0 mm | - | - | - |
| 1788347654 | 12.22° C | 98% | 1005.8 hPa | 0 mm | - | - | - |
| 1788346895 | 12.22° C | 98% | 1005.8 hPa | 0 mm | - | - | - |
| 1788346754 | 12.22° C | 98% | 1005.8 hPa | 0 mm | - | - | - |
| 1788345995 | 12.78° C | 98% | 1005.8 hPa | 0 mm | - | - | - |
| 1788345853 | 12.78° C | 98% | 1005.8 hPa | 0 mm | - | - | - |
| 1788345095 | 12.78° C | 98% | 1005.8 hPa | 0 mm | - | - | - |
| 1788344953 | 12.78° C | 98% | 1005.7 hPa | 0 mm | - | - | - |
* Rain latest hour (hover to see other rain measurements)
** Current wind speed in m/s (hover to see current wind gust speed)